NUVIEW BRAVO

Last updated on Sun Apr 12 2026 00:02:57 GMT+0000 (Coordinated Universal Time)

1 62457U 24252D 26101.50422398 -.00000213 00000+0 00000+0 0 9997 2 62457 0.0634 163.8613 0000736 276.4206 217.8403 1.00271512 3120
UTC large
Height (km)
Speed (km/s)
/
Latitude / Longitude
Inclination (degrees)
Orbital Period (minutes)
Azimuth
Elevation
Range (km)
Doppler Factor

Next 0 passes for location: London (51.5072 / 0.1276)

Sorry there are no passes over London.
NUVIEW BRAVO